Location: Unspecified
(0.0000°N, 0.0000°E)
Time: 20:25:03
(UTC+01:00)

Meteor PRIRODA - Visible Passes

Search period start: 19 November 2017 00:00
Search period end: 29 November 2017 00:00
Orbit: 494 x 513 km, 97.4° (Epoch: 18 November)

Date Brightness Start Highest point End Pass type
(mag) Time Alt. Az. Time Alt. Az. Time Alt. Az.
19 Nov 4.7 05:30:35 28° WSW 05:30:35 28° WSW 05:32:48 10° SSW visible
20 Nov 4.1 05:11:57 47° SSW 05:11:57 47° SSW 05:14:38 10° SSW visible
21 Nov 4.8 04:53:19 40° SE 04:53:19 40° SE 04:56:06 10° S visible
22 Nov 6.0 04:34:40 22° ESE 04:34:40 22° ESE 04:37:06 10° SSE visible
23 Nov 6.9 04:16:03 12° ESE 04:16:03 12° ESE 04:17:08 10° ESE visible
23 Nov 5.5 05:50:48 14° WSW 05:50:48 14° WSW 05:51:50 10° WSW visible
24 Nov 4.8 05:32:11 26° WSW 05:32:11 26° WSW 05:34:15 10° SW visible
25 Nov 4.2 05:13:33 44° SSW 05:13:33 44° SSW 05:16:08 10° SSW visible
26 Nov 4.8 04:54:54 40° SE 04:54:54 40° SE 04:57:37 10° S visible
27 Nov 6.0 04:36:17 23° ESE 04:36:17 23° ESE 04:38:39 10° SSE visible
28 Nov 6.9 04:17:38 12° ESE 04:17:38 12° ESE 04:18:49 10° SE visible
28 Nov 5.6 05:52:24 13° WSW 05:52:24 13° WSW 05:53:12 10° WSW visible
